Location: Казань
(55.7824°N, 49.1242°E)
Time: 13:36:56
(UTC+03:00)

ISS - Visible Passes

Search period start: 17 November 2025 00:00
Search period end: 27 November 2025 00:00
Orbit: 415 x 420 km, 51.6° (Epoch: 16 November)

Date Brightness Start Highest point End Pass type
(mag) Time Alt. Az. Time Alt. Az. Time Alt. Az.
17 Nov -1.7 17:08:03 10° S 17:10:12 16° SSE 17:11:21 14° SE visible
17 Nov -1.2 18:43:16 10° SW 18:44:16 17° SW 18:44:16 17° SW visible
18 Nov -1.3 16:20:54 10° S 16:22:16 12° SE 16:23:40 10° ESE visible
18 Nov -2.5 17:55:19 10° SW 17:58:02 30° S 17:58:02 30° S visible
19 Nov -2.2 17:07:24 10° SW 17:10:14 25° SSE 17:11:44 18° ESE visible
19 Nov -1.3 18:43:22 10° WSW 18:44:39 20° WSW 18:44:39 20° WSW visible
20 Nov -1.8 16:19:37 10° SSW 16:22:10 20° SSE 16:24:44 10° ESE visible
20 Nov -2.9 17:55:15 10° WSW 17:58:18 38° S 17:58:18 38° S visible
21 Nov -2.6 17:07:09 10° SW 17:10:14 35° SSE 17:11:55 21° ESE visible
21 Nov -1.3 18:43:28 10° WSW 18:44:49 21° WSW 18:44:49 21° WSW visible
22 Nov -2.3 16:19:04 10° SW 16:22:03 30° SSE 16:25:02 10° E visible
22 Nov -2.9 17:55:14 10° WSW 17:58:23 40° S 17:58:24 40° S visible
23 Nov -2.8 17:06:59 10° WSW 17:10:08 40° S 17:11:59 21° ESE visible
23 Nov -1.2 18:43:32 10° W 18:44:53 19° WSW 18:44:53 19° WSW visible
24 Nov -2.6 16:18:44 10° WSW 16:21:52 38° S 16:25:01 10° ESE visible
24 Nov -2.6 17:55:10 10° W 17:58:15 34° SSW 17:58:28 34° S visible
25 Nov -2.6 17:06:48 10° WSW 17:09:57 38° S 17:12:04 18° SE visible
25 Nov -1.0 18:43:38 10° WSW 18:44:58 17° SW 18:44:58 17° SW visible
26 Nov -2.6 16:18:25 10° WSW 16:21:36 40° S 16:24:46 10° ESE visible
26 Nov -2.0 17:55:05 10° W 17:57:53 25° SSW 17:58:36 23° S visible
